User: anonymous   Login
Location: ????????
(54.8751°N, 38.5756°E)
Time: 22:59:54
(UTC+00:00)
Language:

Cosmos 1975 - Orbit

View from above orbital plane
View from above orbital plane
View from above satellite
View from above satellite

Ground track
Ground track

The orbit data is extracted from the following two-line orbital elements,

1 19573U 88093A   24175.55737596  .00005065  00000-0  27284-3 0  9991
2 19573  82.5264  17.8545 0014386 192.1921 167.8965 15.14515605945666
Epoch (UTC): 23 June 2024 13:22:37
Eccentricity: 0.0014386
inclination: 82.5264°
perigee height: 512 km
apogee height: 532 km
right ascension of ascending node: 17.8545°
argument of perigee: 192.1921°
revolutions per day: 15.14515605
mean anomaly at epoch: 167.8965°
orbit number at epoch: 94566

The dashed part of the orbit path shows where the satellite is in the earth's shadow,  

DLR